When you browse on this site, cookies collect data to enhance your experience and personalize the content and advertising you see.
Visit our Privacy Policy to learn more. By continuing to use the site, you agree to this use of cookies and data.
  • en Suisse
  • Liste des pays
  • À 7 jours
  • Température de l'eau
  • Carte météo
  • Widgets météo
  • user-avatar
    Se connecter

    Météo par heure à Giumri

    Ce jour, 6 Avril, Lundi

    Heure Température Précipitation Vent Pression Humidité
    00:00 +8°C° 0 mm 1 m/s 635 mmHg 74%
    01:00 +8°C° 0.3 mm 1 m/s 634 mmHg 78%
    02:00 +8°C° 0.3 mm 1 m/s 634 mmHg 81%
    03:00 +7°C° 0 mm 1 m/s 633 mmHg 85%
    04:00 +7°C° 0.2 mm 1 m/s 633 mmHg 85%
    05:00 +7°C° 0.2 mm 1 m/s 633 mmHg 85%
    06:00 +7°C° 0.2 mm 1 m/s 633 mmHg 84%
    07:00 +7°C° 0.1 mm 2 m/s 633 mmHg 79%
    08:00 +8°C° 0.1 mm 3 m/s 634 mmHg 74%
    09:00 +8°C° 0 mm 4 m/s 634 mmHg 69%
    10:00 +8°C° 0.1 mm 4 m/s 634 mmHg 71%
    11:00 +8°C° 0.1 mm 4 m/s 634 mmHg 72%
    12:00 +8°C° 0.1 mm 4 m/s 634 mmHg 73%
    13:00 +8°C° 0.5 mm 4 m/s 634 mmHg 75%
    14:00 +9°C° 0.5 mm 3 m/s 634 mmHg 76%
    15:00 +9°C° 0.5 mm 3 m/s 634 mmHg 78%
    16:00 +9°C° 0.2 mm 2 m/s 634 mmHg 80%
    17:00 +9°C° 0.2 mm 2 m/s 634 mmHg 81%
    18:00 +9°C° 0.2 mm 1 m/s 634 mmHg 83%
    19:00 +9°C° 0.1 mm 1 m/s 634 mmHg 84%
    20:00 +8°C° 0.1 mm 1 m/s 634 mmHg 85%
    21:00 +8°C° 0.1 mm 1 m/s 634 mmHg 87%
    22:00 +6°C° 0.2 mm 2 m/s 634 mmHg 87%
    23:00 +5°C° 0.2 mm 3 m/s 634 mmHg 86%

    Demain, 7 Avril, Mardi

    Heure Température Précipitation Vent Pression Humidité
    00:00 +4°C° 0.2 mm 3 m/s 634 mmHg 86%
    01:00 +4°C° 0.1 mm 3 m/s 634 mmHg 86%
    02:00 +4°C° 0.1 mm 3 m/s 634 mmHg 85%
    03:00 +3°C° 0.1 mm 3 m/s 634 mmHg 85%
    04:00 +3°C° 0.1 mm 3 m/s 634 mmHg 85%
    05:00 +3°C° 0.1 mm 3 m/s 634 mmHg 86%
    06:00 +3°C° 0.1 mm 3 m/s 634 mmHg 86%
    07:00 +3°C° 0.1 mm 3 m/s 634 mmHg 81%
    08:00 +3°C° 0.1 mm 4 m/s 634 mmHg 76%
    09:00 +4°C° 0.1 mm 4 m/s 635 mmHg 70%
    10:00 +4°C° 0 mm 4 m/s 635 mmHg 68%
    11:00 +5°C° 0 mm 4 m/s 635 mmHg 65%
    12:00 +5°C° 0 mm 4 m/s 635 mmHg 63%
    13:00 +5°C° 0 mm 4 m/s 635 mmHg 62%
    14:00 +5°C° 0 mm 4 m/s 635 mmHg 62%
    15:00 +5°C° 0 mm 4 m/s 635 mmHg 61%
    16:00 +4°C° 0 mm 4 m/s 634 mmHg 64%
    17:00 +1°C° 0 mm 4 m/s 634 mmHg 67%
    18:00 0°C° 0 mm 4 m/s 634 mmHg 70%
    19:00 -1°C° 0 mm 4 m/s 634 mmHg 71%
    20:00 -2°C° 0 mm 4 m/s 635 mmHg 73%
    21:00 -2°C° 0 mm 3 m/s 635 mmHg 74%
    22:00 -2°C° 0 mm 3 m/s 635 mmHg 74%
    23:00 -4°C° 0 mm 3 m/s 635 mmHg 73%

    Après-demain, 8 Avril, Mercredi

    Heure Température Précipitation Vent Pression Humidité
    00:00 -4°C° 0 mm 3 m/s 635 mmHg 73%
    01:00 -4°C° 0 mm 3 m/s 635 mmHg 73%
    02:00 -4°C° 0 mm 3 m/s 635 mmHg 72%
    03:00 -5°C° 0 mm 3 m/s 635 mmHg 72%
    04:00 -5°C° 0 mm 3 m/s 636 mmHg 72%
    05:00 -5°C° 0 mm 3 m/s 636 mmHg 71%
    06:00 -5°C° 0 mm 3 m/s 636 mmHg 71%
    07:00 -4°C° 0 mm 3 m/s 636 mmHg 66%
    08:00 -1°C° 0 mm 3 m/s 637 mmHg 61%
    09:00 0°C° 0 mm 3 m/s 637 mmHg 56%
    10:00 +1°C° 0 mm 3 m/s 637 mmHg 54%
    11:00 +2°C° 0 mm 3 m/s 637 mmHg 52%
    12:00 +4°C° 0 mm 3 m/s 637 mmHg 50%
    13:00 +4°C° 0 mm 3 m/s 637 mmHg 51%
    14:00 +4°C° 0 mm 3 m/s 637 mmHg 52%
    15:00 +4°C° 0 mm 3 m/s 636 mmHg 53%
    16:00 +3°C° 0 mm 3 m/s 636 mmHg 57%
    17:00 +2°C° 0 mm 3 m/s 635 mmHg 62%
    18:00 +1°C° 0 mm 3 m/s 635 mmHg 67%
    19:00 0°C° 0 mm 3 m/s 635 mmHg 69%
    20:00 -1°C° 0 mm 3 m/s 635 mmHg 72%
    21:00 -2°C° 0 mm 2 m/s 635 mmHg 75%
    22:00 -2°C° 0 mm 2 m/s 635 mmHg 76%
    23:00 -2°C° 0 mm 2 m/s 635 mmHg 77%

    9 Avril, Jeudi

    Heure Température Précipitation Vent Pression Humidité
    00:00 0°C° 0 mm 1 m/s 634 mmHg 77%
    01:00 0°C° 0 mm 1 m/s 634 mmHg 77%
    02:00 0°C° 0 mm 1 m/s 634 mmHg 77%
    03:00 -2°C° 0 mm 0 m/s 633 mmHg 77%
    04:00 -1°C° 0 mm 0 m/s 633 mmHg 77%
    05:00 -1°C° 0 mm 0 m/s 633 mmHg 76%
    06:00 -1°C° 0 mm 0 m/s 633 mmHg 75%
    07:00 +1°C° 0 mm 1 m/s 633 mmHg 69%
    08:00 +3°C° 0 mm 1 m/s 633 mmHg 63%
    09:00 +4°C° 0 mm 2 m/s 633 mmHg 57%
    10:00 +5°C° 0 mm 2 m/s 632 mmHg 55%
    11:00 +7°C° 0 mm 2 m/s 632 mmHg 53%
    12:00 +8°C° 0 mm 2 m/s 632 mmHg 50%
    13:00 +9°C° 0 mm 2 m/s 632 mmHg 50%
    14:00 +11°C° 0 mm 1 m/s 632 mmHg 49%
    15:00 +11°C° 0 mm 1 m/s 632 mmHg 48%
    16:00 +11°C° 0 mm 1 m/s 632 mmHg 53%
    17:00 +10°C° 0 mm 1 m/s 631 mmHg 58%
    18:00 +9°C° 0 mm 1 m/s 631 mmHg 62%
    19:00 +7°C° 0 mm 2 m/s 631 mmHg 68%
    20:00 +5°C° 0 mm 2 m/s 631 mmHg 74%
    21:00 +2°C° 0 mm 3 m/s 631 mmHg 79%
    22:00 +2°C° 0 mm 3 m/s 630 mmHg 79%
    23:00 +2°C° 0 mm 2 m/s 630 mmHg 78%

    10 Avril, Vendredi

    Heure Température Précipitation Vent Pression Humidité
    00:00 +2°C° 0 mm 2 m/s 630 mmHg 77%
    01:00 +2°C° 0 mm 2 m/s 630 mmHg 76%
    02:00 +1°C° 0 mm 2 m/s 629 mmHg 76%
    03:00 +1°C° 0 mm 2 m/s 629 mmHg 75%
    04:00 +1°C° 0 mm 2 m/s 629 mmHg 73%
    05:00 +2°C° 0 mm 1 m/s 629 mmHg 71%
    06:00 +2°C° 0 mm 1 m/s 629 mmHg 69%
    07:00 +4°C° 0 mm 1 m/s 629 mmHg 65%
    08:00 +6°C° 0 mm 1 m/s 629 mmHg 60%
    09:00 +8°C° 0 mm 1 m/s 630 mmHg 56%
    10:00 +9°C° 0 mm 1 m/s 630 mmHg 55%
    11:00 +9°C° 0 mm 2 m/s 630 mmHg 54%
    12:00 +10°C° 0 mm 2 m/s 630 mmHg 53%
    13:00 +12°C° 0.1 mm 2 m/s 630 mmHg 55%
    14:00 +12°C° 0.1 mm 2 m/s 630 mmHg 56%
    15:00 +11°C° 0.1 mm 3 m/s 630 mmHg 58%
    16:00 +10°C° 0 mm 3 m/s 629 mmHg 63%
    17:00 +8°C° 0 mm 3 m/s 629 mmHg 68%
    18:00 +6°C° 0 mm 4 m/s 628 mmHg 73%
    19:00 +5°C° 0 mm 3 m/s 629 mmHg 75%
    20:00 +4°C° 0 mm 3 m/s 629 mmHg 77%
    21:00 +4°C° 0 mm 3 m/s 629 mmHg 78%
    22:00 +3°C° 0 mm 3 m/s 629 mmHg 79%
    23:00 +4°C° 0 mm 2 m/s 629 mmHg 79%

    11 Avril, Samedi

    Heure Température Précipitation Vent Pression Humidité
    00:00 +4°C° 0 mm 2 m/s 629 mmHg 79%
    01:00 +4°C° 0.1 mm 2 m/s 629 mmHg 80%
    02:00 +3°C° 0.1 mm 2 m/s 628 mmHg 80%
    03:00 +3°C° 0.1 mm 2 m/s 628 mmHg 81%
    04:00 +3°C° 0.4 mm 2 m/s 628 mmHg 82%
    05:00 +3°C° 0.4 mm 2 m/s 628 mmHg 83%
    06:00 +3°C° 0.4 mm 2 m/s 628 mmHg 84%
    07:00 +3°C° 0.3 mm 2 m/s 629 mmHg 82%
    08:00 +4°C° 0.3 mm 2 m/s 629 mmHg 80%
    09:00 +5°C° 0.3 mm 2 m/s 629 mmHg 77%
    10:00 +5°C° 0.4 mm 2 m/s 629 mmHg 80%
    11:00 +5°C° 0.4 mm 2 m/s 629 mmHg 82%
    12:00 +5°C° 0.4 mm 2 m/s 629 mmHg 85%
    13:00 +6°C° 0.4 mm 2 m/s 629 mmHg 83%
    14:00 +6°C° 0.4 mm 2 m/s 629 mmHg 81%
    15:00 +6°C° 0.4 mm 2 m/s 629 mmHg 79%
    16:00 +6°C° 0.1 mm 2 m/s 630 mmHg 78%
    17:00 +6°C° 0.1 mm 2 m/s 630 mmHg 76%
    18:00 +5°C° 0.1 mm 2 m/s 630 mmHg 74%
    19:00 +4°C° 0 mm 2 m/s 630 mmHg 76%
    20:00 +3°C° 0 mm 2 m/s 630 mmHg 78%
    21:00 +2°C° 0 mm 2 m/s 631 mmHg 80%
    22:00 +2°C° 0 mm 2 m/s 631 mmHg 81%
    23:00 +2°C° 0 mm 2 m/s 631 mmHg 81%
    Voir plus